Sarasota, FL

1:05 AM EST on December 14, 2019 (GMT -0500)
Sarasota-bradenton

Weather History for KSRQ - September, 2019

Change the Weather History Date:

Saturday, September 28, 2019

  Actual Average Record
Temperature  
Mean Temperature 84 °F 80 °F  
Max Temperature 93 °F 88 °F 96 °F (1925)
Min Temperature 75 °F 73 °F 62 °F (1961)
Degree Days  
Heating Degree Days 0 0  
Month to date heating degree days 0 0  
Since 1 July heating degree days 0 0  
Cooling Degree Days 20 15  
Month to date cooling degree days 559 463  
Year to date cooling degree days 3417 2760  
Growing Degree Days 34 (Base 50)    
Moisture  
Dew Point 73 °F    
Average Humidity 72    
Maximum Humidity 87    
Minimum Humidity 46    
Precipitation  
Precipitation 0.00 in 0.14 in 2.68 in (1995)
Month to date precipitation 1.99 6.81  
Year to date precipitation 43.38 45.14  
Sea Level Pressure  
Sea Level Pressure 30.02 in    
Wind  
Wind Speed 7 mph ()    
Max Wind Speed 15 mph    
Max Gust Speed 20 mph    
Visibility 10.0 miles    
Events      
T = Trace of Precipitation, MM = Missing Value Source: Averaged Metar Reports

Daily Weather History Graph

Daily Weather History Graph

Search for Another Location

Airport or City:

Astronomy

Sep. 28, 2019 Rise Set
Actual Time 7:21 AM EDT 7:19 PM EDT
Civil Twilight 6:58 AM EDT 7:43 PM EDT
Nautical Twilight 6:31 AM EDT 8:10 PM EDT
Astronomical Twilight 6:03 AM EDT 8:37 PM EDT
Moon 7:03 AM EDT (9/28) 7:41 PM EDT (9/28)
Length of Visible Light 12h 45m
Length of Day
11h 58m
Waning Crescent, 0% of the Moon is Illuminated
Sep 28
Waning Crescent
Sep 28
New
Oct 5
First Quarter
Oct 13
Full
Oct 21
Last Quarter

Hourly Weather History & Observations

Time (EDT) Temp. Heat Index Dew Point Humidity Pressure Visibility Wind Dir Wind Speed Gust Speed Precip Events Conditions
12:53 AM 78.1 °F - 71.1 °F 79% 29.98 in 10.0 mi East 10.4 mph - N/A   Clear
1:53 AM 77.0 °F - 71.1 °F 82% 29.97 in 10.0 mi East 6.9 mph - N/A   Clear
2:53 AM 77.0 °F - 71.1 °F 82% 29.96 in 10.0 mi East 6.9 mph - N/A   Clear
3:53 AM 75.9 °F - 71.1 °F 85% 29.96 in 10.0 mi East 5.8 mph - N/A   Clear
4:53 AM 75.0 °F - 71.1 °F 87% 29.97 in 10.0 mi ENE 4.6 mph - N/A   Clear
5:53 AM 75.0 °F - 71.1 °F 87% 29.98 in 10.0 mi ENE 6.9 mph - N/A   Clear
6:53 AM 75.0 °F - 71.1 °F 87% 30.01 in 10.0 mi East 8.1 mph - N/A   Mostly Cloudy
7:53 AM 75.9 °F - 72.0 °F 87% 30.03 in 10.0 mi East 6.9 mph - N/A   Partly Cloudy
8:53 AM 80.1 °F 84.2 °F 73.0 °F 79% 30.05 in 10.0 mi East 9.2 mph - N/A   Partly Cloudy
9:53 AM 82.9 °F 89.4 °F 73.9 °F 74% 30.06 in 10.0 mi East 9.2 mph - N/A   Clear
10:53 AM 87.1 °F 95.4 °F 73.9 °F 65% 30.07 in 10.0 mi ESE 12.7 mph 18.4 mph N/A   Partly Cloudy
11:53 AM 88.0 °F 95.6 °F 73.0 °F 61% 30.08 in 10.0 mi East 6.9 mph - N/A   Scattered Clouds
12:53 PM 90.0 °F 96.9 °F 72.0 °F 55% 30.06 in 10.0 mi SE 9.2 mph - N/A   Partly Cloudy
1:53 PM 93.0 °F 99.0 °F 70.0 °F 47% 30.04 in 10.0 mi East 4.6 mph - N/A   Scattered Clouds
2:53 PM 91.0 °F 101.6 °F 75.0 °F 59% 30.02 in 10.0 mi WSW 8.1 mph - N/A   Scattered Clouds
3:53 PM 90.0 °F 101.3 °F 75.9 °F 63% 30.00 in 10.0 mi West 11.5 mph - N/A   Scattered Clouds
4:53 PM 89.1 °F 100.2 °F 75.9 °F 65% 29.99 in 10.0 mi West 8.1 mph - N/A   Scattered Clouds
5:53 PM 89.1 °F 100.2 °F 75.9 °F 65% 29.99 in 10.0 mi WNW 12.7 mph - N/A   Partly Cloudy
6:53 PM 86.0 °F 93.8 °F 73.9 °F 67% 30.00 in 10.0 mi NW 8.1 mph - N/A   Clear
7:53 PM 82.9 °F 89.4 °F 73.9 °F 74% 30.01 in 10.0 mi NNW 5.8 mph - N/A   Clear
8:53 PM 82.9 °F 90.2 °F 75.0 °F 77% 30.02 in 10.0 mi North 8.1 mph - N/A   Partly Cloudy
9:53 PM 84.0 °F 89.6 °F 72.0 °F 67% 30.04 in 10.0 mi East 15.0 mph 19.6 mph N/A   Clear
10:53 PM 82.9 °F 87.5 °F 71.1 °F 67% 30.06 in 10.0 mi East 9.2 mph - N/A   Partly Cloudy
11:53 PM 81.0 °F 84.9 °F 71.1 °F 72% 30.06 in 10.0 mi East 10.4 mph - N/A   Partly Cloudy